Temp
17 17 17 18 18 18 18 18 18 19 19 19 19 20 20 21 22 21 25 22 21 22 22 23 24 25 26 26 25 26 28 29 29 29 29 28 28 27 27 28 27 24 24 20 19
17 17 17 18 18 18 18 18 18 19 19 19 19 19 20 20 20 23 22 21 22 22 22 25 26 26 27 26 26 27 28 29 29 29 28 27 28 28 27 27 26 24 21 19 19
15 16 17 17 17 17 17 18 18 18 18 18 19 19 20 20 23 24 21 21 21 22 22 23 25 26 26 26 26 26 28 27 27 27 28 27 26 27 27 27 27 26 22 20 19
14 15 16 17 17 17 18 18 18 18 18 18 19 19 20 19 25 21 21 21 21 21 22 24 26 26 26 26 25 26 25 26 25 24 25 25 26 26 26 24 22 21 20 19 19
14 15 15 15 16 17 17 17 17 17 18 18 19 19 20 24 25 21 21 21 21 21 24 25 26 26 26 26 25 25 25 24 24 23 24 23 25 25 25 21 19 18 18 18 18
13 13 15 15 15 15 16 16 16 16 17 18 18 19 20 23 21 21 21 21 21 22 23 24 26 25 26 25 25 25 24 25 24 24 24 23 25 23 25 20 19 19 18 17 16
12 12 13 14 14 14 14 15 15 16 16 17 18 18 21 24 19 19 20 19 20 22 23 22 24 24 25 24 23 23 24 26 25 24 24 23 23 22 23 20 19 18 18 16 15
11 12 12 13 13 13 14 14 14 15 16 17 17 17 22 20 18 19 19 19 19 20 21 21 22 23 24 23 23 24 24 25 26 23 22 23 25 24 21 20 20 19 18 16 15
10 11 12 12 12 13 13 14 14 15 15 16 17 19 22 18 18 19 19 21 20 20 19 20 22 23 22 24 24 24 25 25 25 24 23 22 26 22 21 21 21 20 18 17 15
10 11 11 12 12 12 13 13 14 14 15 15 16 19 20 20 18 18 18 20 21 21 21 22 23 23 23 24 24 26 25 25 25 24 22 23 23 22 20 21 21 20 18 17 16
11 10 11 11 11 12 12 13 17 17 15 21 21 22 20 16 16 18 18 20 21 22 21 21 22 22 24 24 25 25 25 25 26 24 22 24 25 26 22 20 21 20 18 17 15
12 11 11 11 11 11 11 17 18 15 19 19 19 20 18 18 18 18 18 21 20 21 22 20 21 24 25 24 24 23 23 24 25 22 21 23 24 25 25 21 21 20 19 17 14
12 11 11 11 11 10 12 15 15 15 19 21 19 19 18 18 21 19 19 21 20 21 20 22 23 22 21 21 21 22 23 24 24 21 20 21 21 22 24 22 19 19 18 17 15
12 11 11 11 11 12 12 13 14 15 19 21 18 19 18 20 19 20 19 20 19 21 21 21 23 20 20 21 22 22 24 22 22 21 22 21 21 24 25 19 17 16 16 16 15
12 11 11 11 14 13 14 13 14 15 17 23 18 15 18 20 18 15 17 18 21 20 20 22 19 19 20 21 22 22 21 21 21 20 20 21 19 23 23 21 18 15 15 15 14
12 11 11 11 11 14 14 13 15 17 18 17 16 15 16 18 16 15 16 17 19 20 19 21 18 20 21 18 20 19 19 18 18 19 18 21 21 22 23 20 20 15 14 14 13
12 12 11 11 11 13 13 14 15 17 22 19 16 16 17 16 15 16 15 16 18 17 19 19 19 19 18 18 16 18 19 19 18 17 18 19 21 22 24 19 21 15 14 14 13
11 11 11 11 11 13 11 13 13 18 21 17 17 16 17 15 15 15 15 17 18 20 22 20 20 19 18 20 20 17 19 19 17 19 20 14 18 21 20 18 15 16 15 14 12
10 10 11 11 11 12 12 12 15 19 21 20 16 17 16 16 16 15 16 18 20 20 19 20 21 18 18 19 20 17 17 20 16 11 15 20 19 21 14 13 13 15 14 13 12
9 10 11 11 11 11 12 12 15 19 21 22 19 19 19 17 16 16 17 19 19 19 20 21 20 17 16 16 17 18 19 16 17 15 17 21 21 22 14 14 13 14 13 12 11
9 10 12 12 10 11 12 12 15 19 21 21 20 20 21 20 17 16 20 20 19 18 18 19 19 15 15 15 17 15 16 17 18 18 18 20 21 22 21 17 13 13 13 12 11
9 10 11 11 11 12 12 13 15 17 19 19 20 20 21 20 18 18 19 20 19 17 16 18 18 18 17 18 17 19 18 18 17 16 17 17 20 17 19 19 16 13 12 12 12
10 10 11 11 12 12 12 13 15 16 17 17 18 19 21 20 17 19 20 21 19 17 17 17 14 14 15 14 13 14 16 18 18 14 15 17 20 15 14 15 16 15 13 13 12
9 9 10 10 11 13 12 12 12 15 15 17 18 18 17 18 19 20 19 16 17 17 15 16 13 14 18 20 19 15 15 16 16 15 17 18 19 15 15 15 14 15 13 13 12
9 8 10 10 10 11 12 13 12 12 14 14 15 16 16 14 15 18 18 13 12 14 15 15 12 13 15 18 19 16 16 15 15 17 17 19 19 21 17 16 16 15 14 12 11
8 8 8 10 11 11 11 12 12 13 13 12 13 15 16 14 15 15 16 17 15 12 13 12 11 13 13 15 15 15 16 16 16 16 17 19 20 22 21 18 17 15 14 12 11
5 5 7 10 10 10 9 10 12 13 13 13 13 13 13 15 16 14 12 14 14 13 11 10 10 10 13 13 13 11 12 15 17 17 18 17 18 14 16 15 14 13 13 12 12
Height
819 819 818 819 818 817 817 817 816 815 814 813 812 810 808 806 804 803 802 803 803 803 804 805 804 804 803 803 804 802 805 807 804 804 801 804 807 806 808 808 810 817 819 828 828
819 819 819 818 818 818 817 816 815 815 814 814 812 810 808 806 804 802 803 802 802 804 805 805 803 803 800 803 803 803 806 799 796 794 801 804 805 806 810 809 814 820 826 829 829
818 819 818 818 818 817 816 816 815 815 815 814 813 811 808 806 804 800 802 802 803 804 806 806 805 803 804 803 804 804 806 803 804 803 800 806 810 808 809 813 809 812 825 829 830
818 818 818 817 816 816 816 815 815 815 815 813 812 810 808 807 810 802 802 802 803 805 806 806 804 804 806 808 806 811 808 805 808 809 811 812 807 810 810 816 820 824 828 830 831
816 817 817 816 816 815 815 814 814 815 814 813 811 810 808 805 800 802 802 803 804 806 806 805 804 804 809 805 808 809 808 810 809 812 813 814 813 812 812 821 825 828 830 831 833
814 815 815 815 815 815 815 814 814 814 814 812 811 810 810 809 802 802 803 804 806 807 807 807 804 804 805 806 810 807 810 808 809 810 812 818 811 816 809 819 824 827 830 832 835
813 814 814 814 814 814 814 814 814 813 813 811 811 810 808 802 803 802 803 805 805 807 807 808 808 808 806 811 811 811 815 805 806 808 812 814 816 816 810 819 823 826 829 833 834
810 812 812 812 813 813 814 813 813 812 812 811 810 811 803 800 802 802 804 805 806 807 808 810 810 810 809 812 812 813 813 813 799 810 812 815 806 802 814 817 819 823 826 831 834
807 809 810 812 812 812 813 812 812 812 811 811 811 810 801 799 801 801 804 805 807 808 809 810 810 809 814 814 814 811 810 805 803 805 810 815 801 808 813 814 815 820 824 829 833
803 806 808 809 810 811 811 811 810 810 810 811 811 812 799 796 798 800 802 805 806 808 810 810 809 811 810 810 816 802 808 802 807 806 811 809 806 807 813 812 811 816 822 826 829
800 803 805 807 808 810 812 812 812 809 808 794 792 788 792 797 798 800 802 804 805 806 810 810 812 810 801 800 796 801 803 802 793 802 811 803 798 790 804 811 809 813 817 823 828
795 800 803 805 806 808 810 807 802 807 799 791 792 791 792 793 796 799 802 803 805 806 803 816 810 793 791 797 800 806 807 804 793 804 813 801 797 789 788 799 801 805 811 819 829
791 796 799 803 804 806 807 805 805 805 799 782 783 783 786 790 785 790 796 795 800 803 805 800 791 792 801 806 810 804 806 800 802 811 812 807 801 791 780 789 800 805 808 816 823
783 790 795 801 805 802 802 801 804 805 800 773 779 772 778 781 785 783 788 791 799 796 801 798 786 800 805 803 803 805 793 801 804 813 810 803 799 776 770 790 801 807 810 814 819
775 781 786 791 789 791 794 796 802 805 814 750 767 775 771 770 774 788 788 790 786 793 798 786 799 802 802 797 798 800 801 805 806 810 809 803 816 771 768 780 786 798 806 810 816
767 772 777 783 786 787 790 793 798 808 787 764 769 774 777 773 781 788 791 790 787 789 794 787 795 793 790 802 799 804 810 816 816 814 812 798 799 762 761 766 768 789 800 805 813
759 763 767 771 773 781 785 791 798 784 734 750 763 769 768 776 783 781 787 789 784 798 791 790 790 792 796 802 809 806 810 816 817 822 806 788 785 758 746 762 760 779 793 801 811
754 757 756 760 769 775 779 781 780 730 733 747 754 761 766 774 777 781 784 782 778 770 767 779 783 779 786 779 785 803 797 804 815 800 789 813 788 758 754 764 772 775 788 798 808
752 751 750 750 759 764 770 762 739 703 718 732 757 760 765 768 771 779 773 765 756 761 775 770 769 773 777 778 778 798 803 788 809 834 815 775 767 752 772 777 778 776 785 793 802
746 745 740 745 747 753 751 744 726 714 715 715 731 736 743 756 766 768 762 743 750 752 752 756 769 779 786 788 785 786 783 809 806 812 796 756 752 742 768 765 774 776 781 791 800
741 739 726 733 738 735 725 727 716 716 713 716 719 723 723 735 748 752 736 734 740 749 757 757 763 783 788 783 775 791 790 786 781 781 777 764 741 724 729 744 759 768 774 782 790
734 729 722 726 724 715 716 698 720 716 715 714 715 714 714 723 737 737 731 724 729 741 758 752 756 761 766 763 767 760 768 774 776 785 778 772 732 735 730 732 748 762 769 776 784
723 722 722 716 705 707 711 713 715 715 711 713 714 712 710 717 733 720 717 715 725 734 739 749 766 775 769 776 779 773 763 760 762 778 767 767 725 741 744 744 746 753 761 769 779
723 719 715 715 702 702 708 707 711 708 708 707 705 712 715 715 712 708 711 725 726 728 734 735 755 750 731 724 730 757 754 757 762 766 743 735 726 746 744 744 748 749 757 765 772
717 713 706 700 704 700 695 695 700 705 706 707 708 703 711 724 722 708 711 734 737 734 735 738 753 748 732 725 725 736 740 746 749 726 744 701 722 719 729 735 736 743 753 762 769
716 706 705 699 694 697 694 687 689 695 695 700 704 700 703 707 705 710 714 711 720 736 737 742 745 743 737 729 734 736 729 726 726 727 725 711 705 702 708 723 732 739 747 754 761
712 709 705 686 689 691 694 692 682 687 686 688 695 700 698 691 700 706 709 707 710 718 735 749 749 749 726 731 737 751 702 723 708 710 708 715 693 721 721 728 734 739 744 751 754
Wind_Speed
2 2 1 1 1 2 3 3 5 6 7 9 10 11 11 12 11 5 2 1 2 4 3 2 2 1 1 2 2 2 4 6 5 8 5 6 8 3 1 3 3 4 5 4 6
4 3 3 2 2 4 4 5 5 7 8 10 11 11 12 13 7 5 3 3 3 5 2 5 3 3 2 1 1 3 4 2 3 2 4 7 6 6 5 6 5 5 7 6 6
6 5 5 4 5 4 5 6 6 7 8 9 11 12 12 11 5 2 2 3 5 4 2 2 2 3 3 2 1 1 4 2 3 3 1 5 5 2 5 6 4 2 6 5 6
8 7 7 7 6 6 6 6 7 7 8 9 11 11 11 4 3 1 2 5 5 4 3 4 4 3 3 4 1 5 2 2 2 3 2 5 0 4 5 5 6 7 6 4 5
11 10 9 8 8 8 8 7 7 8 9 10 10 10 5 5 2 1 3 5 6 5 5 3 4 2 6 2 3 6 3 3 3 4 4 1 7 7 6 6 6 7 5 4 4
13 12 11 10 9 9 9 8 7 8 9 10 9 7 4 9 0 3 3 6 4 5 4 4 2 2 3 2 5 2 4 5 6 8 6 6 10 3 7 7 6 5 4 3 4
15 14 12 10 10 9 9 8 8 8 9 9 7 4 5 8 1 3 5 4 4 3 4 1 1 4 1 2 1 2 6 9 11 9 5 7 11 12 10 11 9 6 4 2 3
17 15 14 12 11 10 10 9 9 9 8 6 4 3 6 5 3 5 5 3 4 3 2 3 1 2 3 2 3 4 4 8 8 8 4 9 12 9 11 12 10 6 4 1 3
19 17 16 14 12 11 10 9 8 9 7 5 3 3 6 1 4 7 6 4 6 5 4 4 2 2 4 6 7 8 10 9 5 10 5 11 3 9 12 11 9 7 6 4 4
21 19 17 14 12 11 9 8 9 8 4 3 3 4 6 3 5 7 5 10 3 9 6 5 5 7 8 10 10 10 11 9 10 7 9 11 13 9 11 12 11 9 8 7 6
24 21 18 14 12 10 6 3 5 5 7 9 4 3 4 5 6 6 7 9 6 8 9 9 9 14 18 16 17 8 10 12 8 4 4 13 15 12 14 12 12 11 10 9 7
23 23 19 15 12 9 6 5 4 3 8 18 13 9 3 7 4 9 11 10 9 13 12 5 16 18 13 11 14 13 15 16 13 4 4 12 17 15 14 18 16 14 12 11 9
27 25 20 14 12 11 13 10 2 2 7 12 11 10 7 12 8 15 18 9 10 15 16 17 4 7 10 8 12 16 16 14 14 2 10 12 19 22 24 15 9 10 11 10 11
32 28 22 18 11 13 12 16 6 1 6 16 9 9 9 10 9 9 23 6 6 15 14 14 13 5 10 16 15 16 14 14 12 7 10 6 10 11 11 16 16 14 14 14 13
36 32 29 32 7 23 6 16 12 0 7 3 10 2 7 16 11 5 10 6 14 11 8 6 10 12 13 12 11 8 2 7 11 14 15 18 9 13 7 14 18 18 17 16 15
39 38 35 33 21 17 14 21 11 6 17 6 6 8 9 15 3 6 7 0 3 9 10 14 3 7 11 3 7 10 5 2 3 8 12 18 16 14 13 14 13 18 19 19 18
42 42 44 35 19 22 20 14 7 15 7 11 8 9 15 9 8 9 15 14 12 9 17 13 16 6 5 6 3 12 7 4 5 6 8 1 13 17 2 5 9 21 21 20 18
23 44 48 39 26 31 21 11 11 32 28 8 5 10 14 12 8 9 13 12 22 18 9 15 10 22 17 22 10 18 17 6 6 6 5 2 9 7 3 7 4 15 19 18 19
20 18 32 42 37 40 11 15 19 32 24 19 9 8 13 9 7 10 14 12 15 23 14 12 11 6 7 10 16 7 12 13 4 2 4 7 10 7 7 7 7 16 19 20 19
16 9 18 35 42 34 16 19 20 19 19 23 31 19 17 15 13 15 17 13 15 22 13 5 6 5 5 4 4 9 8 6 6 6 8 9 14 10 9 15 14 18 19 18 18
14 3 8 34 38 13 17 18 29 15 21 21 24 22 25 16 19 14 10 7 20 19 20 8 7 6 7 11 17 7 9 8 6 9 4 5 7 9 13 16 20 18 18 20 21
4 4 8 39 11 10 18 38 17 25 17 20 13 23 20 20 17 19 19 13 19 17 17 14 4 11 14 4 9 17 14 20 6 6 6 4 11 3 3 11 16 17 17 19 20
4 5 11 27 12 14 15 26 25 18 29 20 23 19 20 20 11 21 17 12 17 18 19 13 5 3 4 1 2 9 15 16 19 1 14 8 8 3 6 8 12 16 17 17 18
3 3 4 4 2 17 14 17 29 21 16 26 23 13 12 18 21 11 18 6 13 15 6 9 6 11 18 6 8 9 16 22 17 12 17 25 17 6 10 12 13 14 16 17 19
3 5 4 4 13 20 18 13 19 21 23 14 16 23 22 13 19 26 15 4 2 6 6 11 9 17 23 22 11 8 14 23 28 34 17 32 24 14 16 15 17 16 16 16 17
3 3 3 5 7 9 14 18 22 19 15 19 23 24 23 21 22 12 20 14 8 8 8 3 5 13 22 21 20 21 19 23 30 30 31 32 29 5 15 14 11 13 15 16 17
4 4 4 8 9 8 6 5 19 21 14 17 25 17 19 32 21 12 4 9 5 14 13 11 7 6 17 10 14 5 38 24 26 30 24 28 31 4 6 11 10 8 11 14 16
Wind_Direction
188 193 207 282 320 335 338 342 344 355 359 352 346 341 338 333 328 324 278 195 187 187 173 210 226 263 256 93 5 304 243 225 214 220 178 153 187 164 88 191 80 34 38 30 5
233 243 258 281 304 316 319 329 341 347 346 345 342 339 335 332 321 263 260 218 189 167 204 217 207 220 173 137 170 265 260 227 355 194 196 167 223 171 217 185 152 124 85 56 52
241 254 264 278 294 300 313 322 329 335 337 337 338 336 333 332 286 90 195 172 159 161 232 231 194 238 208 254 174 156 281 109 151 120 193 167 205 209 236 225 30 229 114 70 62
253 261 273 279 281 287 299 310 318 321 327 331 334 334 329 319 310 110 174 167 168 160 172 181 215 230 261 238 188 239 185 206 137 153 189 201 334 226 243 68 86 79 96 84 58
251 257 266 276 282 284 288 296 305 312 319 327 332 334 339 253 295 180 172 170 162 163 207 214 237 267 257 243 212 246 172 201 170 178 223 316 244 261 218 128 116 112 107 83 60
248 253 260 269 276 282 286 291 296 307 313 320 326 327 289 265 196 200 181 164 179 194 197 221 295 279 282 254 243 40 227 215 207 217 228 233 240 193 202 158 151 145 116 87 57
249 250 253 259 269 275 280 286 293 303 308 314 325 331 257 272 204 192 173 166 177 205 208 237 252 227 162 222 179 260 265 227 226 222 241 215 244 230 146 165 159 155 150 120 50
245 248 252 254 260 266 274 279 288 297 303 304 312 304 270 228 190 192 174 130 134 130 126 123 170 140 282 118 202 246 241 250 123 181 171 200 266 150 161 172 175 173 169 137 45
242 243 248 251 254 260 267 276 284 292 291 296 305 263 259 149 190 187 185 177 137 117 101 128 176 213 176 223 236 215 262 212 195 200 155 203 244 155 179 195 195 201 192 187 163
242 243 240 245 250 254 257 271 285 289 287 260 255 251 190 194 149 162 164 160 147 143 133 180 205 216 223 216 233 259 230 250 255 161 222 214 246 163 194 215 217 203 198 196 185
248 241 235 235 245 246 253 269 235 210 211 216 215 262 143 116 130 171 164 157 144 197 205 202 216 218 224 226 251 289 282 266 269 101 258 243 251 224 197 214 218 210 206 198 180
247 239 231 232 235 233 217 233 345 2 292 230 243 245 183 178 152 174 166 184 193 207 206 185 229 236 241 267 235 239 253 256 264 150 253 270 264 260 226 212 218 217 207 191 167
242 234 224 224 224 212 221 216 274 350 262 249 208 224 197 176 210 180 181 200 208 214 203 225 225 238 198 212 218 234 240 252 260 144 239 273 267 255 244 207 214 232 206 184 176
235 227 213 212 202 208 227 230 212 183 271 248 204 223 164 185 227 160 196 180 199 220 215 243 238 167 205 227 219 243 227 254 262 251 261 166 281 278 242 207 211 205 199 183 170
238 224 208 202 200 191 186 193 169 178 273 4 135 92 164 185 121 167 174 188 209 187 179 208 186 201 214 222 206 255 63 229 247 258 272 255 264 264 241 215 208 203 197 185 172
243 227 210 209 224 197 193 167 149 195 238 167 133 166 158 206 142 113 172 270 320 225 238 259 18 204 220 110 205 130 115 85 254 264 257 240 234 258 218 231 201 188 191 181 174
243 233 212 196 201 184 169 156 177 217 147 194 171 176 193 176 173 178 180 186 183 190 224 216 221 179 177 153 151 200 177 249 238 213 256 323 219 248 226 169 200 182 185 180 174
245 234 219 202 193 182 164 177 208 231 217 98 137 168 186 160 198 183 172 205 219 223 260 214 226 198 200 214 196 197 198 203 247 235 267 23 235 244 254 113 135 177 179 173 175
259 249 218 205 190 181 184 201 209 218 209 201 140 192 202 202 190 178 202 214 208 206 204 206 235 190 190 221 211 169 222 236 310 160 269 224 246 260 161 181 170 168 172 178 180
241 237 226 210 190 179 196 210 231 231 233 211 216 198 202 196 190 195 191 221 216 201 211 217 242 172 150 174 248 210 160 176 218 229 239 242 242 241 209 198 181 179 181 180 181
219 238 217 209 186 190 204 215 223 227 214 219 220 224 227 200 199 196 207 190 203 186 198 204 240 133 152 202 186 180 205 218 224 222 257 275 243 187 204 189 185 185 185 184 186
207 225 211 180 198 208 204 213 221 219 233 234 244 223 219 216 203 208 215 214 197 154 182 199 218 234 215 130 255 225 214 205 212 186 242 288 254 157 135 176 174 184 187 189 189
226 209 236 192 216 212 212 222 229 213 215 219 225 227 226 215 221 219 215 219 178 175 171 166 190 224 248 191 178 223 218 228 227 93 226 213 247 140 144 156 179 179 184 185 183
254 218 205 245 295 227 216 217 213 222 228 220 225 228 221 231 221 239 220 159 193 199 153 147 155 202 228 216 154 204 207 208 212 225 235 237 248 183 207 190 184 186 182 182 186
237 210 244 206 228 247 219 201 210 213 219 215 226 222 212 223 231 233 226 131 194 201 174 166 220 222 246 254 244 206 205 207 209 225 215 248 239 221 201 199 195 184 178 182 187
271 232 160 262 224 245 240 214 211 212 194 212 226 221 224 218 217 225 226 207 199 180 181 148 240 224 255 242 245 259 248 221 219 228 231 246 253 243 194 195 183 182 175 184 192
200 281 307 201 214 207 222 290 225 209 215 224 220 221 219 229 232 256 280 235 223 185 182 174 196 188 250 211 243 276 237 227 232 224 223 235 246 141 153 180 189 170 182 198 199